Weather in Vastervik

Sweden     57°45′29″N   16°37′23″E
temp.,
°C
wind,
m/s
gust,
m/s
humid.,
%
clouds,
%
prec.,
mm/h
press.,
hPa
HPBL,
m
17 may, mon
mon1723:00+8ne2494100 0.1 1003107
02:00+8nne1298100 1.9 100293
05:00+8wnw1299100 0.8 1000131
08:00+9sw2595100 0.9 1000297
11:00+14ssw356662 0.1 10011234
14:00+17s365179 0.5 10021720
17:00+16sse565422 0.3 10021002
20:00+13ssw24757 0.6 100391
18 may, tue
tue1823:00+9ssw228841 0.0 100425
02:00+8wsw229229 0.0 100524
05:00+7w119420 0.0 100512
08:00+13nw1268100 0.0 1006311
11:00+17e2250100 0.0 10061401
14:00+15ese3259100 0.2 1006719
17:00+15s2263100 0.4 1006581
20:00+12wsw3781100 0.7 1007243
19 may, wed
wed1923:00+11wsw2692100 0.3 1007140
02:00+10wnw2391100 0.8 100768
05:00+10nw2594100 0.1 1007161
08:00+9wnw3791100 0.3 1008303
11:00+13nw356699 0.1 1008688
14:00+18nnw2437100 0.1 10072268
17:00+14se4453100 0.0 1007484
20:00+13wsw2759100 0.0 1008328
20 may, thu
thu2023:00+9w3773100 0.0 1010146
02:00+7w388599 0.0 1011213
05:00+5wsw39930 0.0 1012238
08:00+11wsw47640 0.0 1012702
11:00+15wsw45425 0.0 10121702
14:00+17wsw46305 0.0 10112387
17:00+16w463551 0.0 10111914
20:00+12wsw47533 0.0 1011907
21 may, fri
fri2123:00+7sw310805 0.0 1011303
02:00+7wsw498810 0.0 1011428
05:00+8w4873100 0.0 1011841
08:00+10w4667100 0.0 1011915
11:00+15wnw35427 0.0 10101831
14:00+15ne1344100 0.0 10091440
17:00+16e234388 0.0 10081247
20:00+12sse266099 0.0 1008182